Hourly Data Report for September 15, 2017

All times are specified in Local Standard Time (LST). Add 1 hour to adjust for Daylight Saving Time where and when it is observed.

FISHER BRANCH (AUT)
MANITOBA

51°05'00.100" N
97°33'16.200" W
253.00 m
50309J6
71442
WSZ

Download Data

Hourly Data (September 2017)
Hourly Data Report for September 15, 2017
Temp Definition
°C
Dew Point Temp Definition
°C
Rel Hum Definition
%
Wind Dir Definition
10's deg

Wind Spd Definition
km/h
Visibility Definition
km
Stn Press Definition
kPa
Hmdx Definition


Wind Chill Definition


Weather Definition


TIME
00:00 8.8 6.1 83 36 8   98.67     LegendNANA
01:00 8.8 5.9 82 36 7   98.72     LegendNANA
02:00 8.6 5.9 83 35 9   98.77     LegendNANA
03:00 7.8 5.8 87 34 9   98.79     LegendNANA
04:00 6.7 5.0 88 35 7   98.86     LegendNANA
05:00 6.6 4.9 89 36 8   98.88     LegendNANA
06:00 5.3 4.0 91 36 7   98.92     LegendNANA
07:00 6.5 4.9 90 36 8   98.97     LegendNANA
08:00 7.6 5.5 86 2 7   99.00     LegendNANA
09:00 8.9 5.7 81 3 11   99.05     LegendNANA
10:00 10.3 5.4 72 4 16   99.07     LegendNANA
11:00 11.0 5.1 67 3 13   99.08     LegendNANA
12:00 12.3 3.2 54 3 15   99.03     LegendNANA
13:00 13.1 1.6 46 3 15   99.03     LegendNANA
14:00 12.9 2.8 50 2 13   98.99     LegendNANA
15:00 12.6 1.3 46 3 17   99.00     LegendNANA
16:00 12.5 0.4 43 3 14   99.01     LegendNANA
17:00 12.2 0.9 46 4 11   99.03     LegendNANA
18:00 11.7 1.6 50 3 10   98.93     LegendNANA
19:00 11.6 2.9 55 4 14   98.90     LegendNANA
20:00 11.6 2.6 54 3 14   98.94     LegendNANA
21:00 11.5 3.1 56 2 8   99.05     LegendNANA
22:00 10.7 4.2 64 4 12   99.00     LegendNANA
23:00 9.5 5.4 75 4 11   98.95     LegendNANA

Notes on Data Quality.

Legend

  • E = Estimated
  • M = Missing
  • NA = Not Available
  • ‡ = Partner data that is not subject to review by the National Climate Archives
Date modified: